Location: Fort Wayne
(41.1310°N, 85.1290°W)
Time: 05:28:36
(UTC-05:00)

SR - Visible Passes

Search period start: 21 January 2018 00:00
Search period end: 31 January 2018 00:00
Orbit: 583 x 873 km, 66.7° (Epoch: 20 January)

Date Brightness Start Highest point End Pass type
(mag) Time Alt. Az. Time Alt. Az. Time Alt. Az.
21 Jan ? 18:40:25 10° N 18:43:14 16° NE 18:44:12 15° ENE visible
21 Jan ? 20:21:06 10° NW 20:23:42 34° NW 20:23:42 34° NW visible
22 Jan ? 19:31:41 10° NNW 19:36:11 54° ENE 19:36:45 51° E visible
22 Jan ? 21:14:47 10° WNW 21:16:17 15° W 21:16:17 15° W visible
23 Jan ? 18:42:35 10° N 18:46:32 28° NE 18:50:21 12° ESE visible
23 Jan ? 20:24:19 10° NW 20:28:36 36° WSW 20:29:56 30° SSW visible
24 Jan ? 19:34:33 10° NNW 19:39:12 77° WSW 19:44:14 10° SSE visible
25 Jan ? 18:45:10 10° NNW 18:49:41 51° ENE 18:54:32 10° SE visible
25 Jan ? 20:28:07 10° WNW 20:31:24 19° WSW 20:34:50 10° SSW visible
26 Jan ? 19:37:45 10° NW 19:42:06 38° WSW 19:46:46 10° S visible
27 Jan ? 18:48:01 10° NNW 18:52:41 82° WSW 18:57:45 10° SSE visible
28 Jan ? 19:41:28 10° WNW 19:44:55 20° WSW 19:48:31 10° SSW visible
29 Jan ? 18:51:11 10° NW 18:55:36 41° WSW 19:00:22 10° S visible
